• en France
  • Liste des pays
  • À 7 jours
  • Température de l'eau
  • Carte satellitaire
  • Carte météo
  • Widgets météo
  • user-avatar
    Se connecter

    Météo par heure à Vratsa

    Ce jour, 18 Janvier, Jeudi

    Heure Température Précipitation Vent Pression Humidité
    00:00 -2°C° 0,3 mm 6 m/s 693 mmHg 84%
    01:00 -3°C° 0,3 mm 7 m/s 694 mmHg 82%
    02:00 -4°C° 0,3 mm 8 m/s 694 mmHg 80%
    03:00 -5°C° 0,1 mm 8 m/s 695 mmHg 79%
    04:00 -5°C° 0,1 mm 8 m/s 695 mmHg 78%
    05:00 -5°C° 0,1 mm 8 m/s 696 mmHg 77%
    06:00 -6°C° 0 mm 8 m/s 696 mmHg 76%
    07:00 -6°C° 0 mm 8 m/s 697 mmHg 76%
    08:00 -6°C° 0 mm 8 m/s 698 mmHg 76%
    09:00 -6°C° 0 mm 8 m/s 699 mmHg 74%
    10:00 -5°C° 0 mm 9 m/s 700 mmHg 71%
    11:00 -4°C° 0 mm 9 m/s 701 mmHg 68%
    12:00 -4°C° 0 mm 9 m/s 702 mmHg 67%
    13:00 -3°C° 0 mm 9 m/s 702 mmHg 66%
    14:00 -2°C° 0 mm 8 m/s 703 mmHg 65%
    15:00 -3°C° 0 mm 7 m/s 703 mmHg 68%
    16:00 -3°C° 0 mm 6 m/s 704 mmHg 70%
    17:00 -4°C° 0 mm 5 m/s 704 mmHg 73%
    18:00 -3°C° 0 mm 4 m/s 704 mmHg 74%
    19:00 -4°C° 0 mm 4 m/s 705 mmHg 75%
    20:00 -4°C° 0 mm 3 m/s 705 mmHg 77%
    21:00 -4°C° 0 mm 3 m/s 705 mmHg 75%
    22:00 -4°C° 0 mm 3 m/s 705 mmHg 73%
    23:00 -4°C° 0 mm 3 m/s 705 mmHg 72%

    Demain, 19 Janvier, Vendredi

    Heure Température Précipitation Vent Pression Humidité
    00:00 -4°C° 0 mm 3 m/s 705 mmHg 70%
    01:00 -4°C° 0 mm 3 m/s 705 mmHg 68%
    02:00 -2°C° 0 mm 3 m/s 705 mmHg 66%
    03:00 -2°C° 0 mm 3 m/s 704 mmHg 65%
    04:00 -2°C° 0 mm 3 m/s 704 mmHg 63%
    05:00 -2°C° 0 mm 3 m/s 704 mmHg 62%
    06:00 -2°C° 0 mm 3 m/s 704 mmHg 61%
    07:00 -2°C° 0 mm 2 m/s 704 mmHg 60%
    08:00 -2°C° 0 mm 2 m/s 704 mmHg 60%
    09:00 +1°C° 0 mm 2 m/s 705 mmHg 58%
    10:00 +3°C° 0 mm 2 m/s 705 mmHg 55%
    11:00 +4°C° 0 mm 2 m/s 705 mmHg 53%
    12:00 +5°C° 0 mm 2 m/s 705 mmHg 52%
    13:00 +7°C° 0 mm 1 m/s 705 mmHg 52%
    14:00 +8°C° 0 mm 1 m/s 705 mmHg 51%
    15:00 +7°C° 0 mm 1 m/s 705 mmHg 55%
    16:00 +6°C° 0 mm 1 m/s 705 mmHg 60%
    17:00 +5°C° 0 mm 1 m/s 704 mmHg 64%
    18:00 +3°C° 0 mm 2 m/s 704 mmHg 65%
    19:00 +3°C° 0 mm 2 m/s 704 mmHg 66%
    20:00 +2°C° 0 mm 2 m/s 704 mmHg 68%
    21:00 +2°C° 0 mm 2 m/s 704 mmHg 68%
    22:00 +2°C° 0 mm 2 m/s 704 mmHg 69%
    23:00 +3°C° 0 mm 1 m/s 704 mmHg 70%

    Après-demain, 20 Janvier, Samedi

    Heure Température Précipitation Vent Pression Humidité
    00:00 +2°C° 0 mm 2 m/s 704 mmHg 70%
    01:00 +2°C° 0 mm 2 m/s 704 mmHg 71%
    02:00 +2°C° 0 mm 2 m/s 704 mmHg 71%
    03:00 +1°C° 0 mm 2 m/s 704 mmHg 72%
    04:00 +1°C° 0 mm 2 m/s 704 mmHg 73%
    05:00 +1°C° 0 mm 2 m/s 703 mmHg 74%
    06:00 +1°C° 0 mm 2 m/s 704 mmHg 76%
    07:00 +1°C° 0 mm 2 m/s 704 mmHg 78%
    08:00 +1°C° 0 mm 2 m/s 705 mmHg 81%
    09:00 +2°C° 0 mm 2 m/s 705 mmHg 78%
    10:00 +3°C° 0 mm 2 m/s 705 mmHg 75%
    11:00 +6°C° 0 mm 1 m/s 705 mmHg 72%
    12:00 +6°C° 0 mm 1 m/s 705 mmHg 72%
    13:00 +7°C° 0 mm 1 m/s 704 mmHg 71%
    14:00 +7°C° 0 mm 1 m/s 704 mmHg 70%
    15:00 +6°C° 0,5 mm 1 m/s 704 mmHg 75%
    16:00 +5°C° 0,5 mm 1 m/s 703 mmHg 79%
    17:00 +4°C° 0,5 mm 1 m/s 703 mmHg 84%
    18:00 +4°C° 1 mm 1 m/s 703 mmHg 86%
    19:00 +3°C° 1 mm 1 m/s 703 mmHg 88%
    20:00 +3°C° 1 mm 1 m/s 703 mmHg 90%
    21:00 +3°C° 1,3 mm 1 m/s 702 mmHg 91%
    22:00 +3°C° 1,3 mm 1 m/s 702 mmHg 92%
    23:00 +1°C° 1,3 mm 2 m/s 702 mmHg 93%

    21 Janvier, Dimanche

    Heure Température Précipitation Vent Pression Humidité
    00:00 +1°C° 1,4 mm 2 m/s 702 mmHg 93%
    01:00 +1°C° 1,4 mm 2 m/s 702 mmHg 94%
    02:00 +1°C° 1,4 mm 2 m/s 703 mmHg 95%
    03:00 -1°C° 0,1 mm 2 m/s 703 mmHg 94%
    04:00 +1°C° 0,1 mm 1 m/s 703 mmHg 93%
    05:00 +1°C° 0,1 mm 1 m/s 703 mmHg 93%
    06:00 +1°C° 0 mm 1 m/s 703 mmHg 92%
    07:00 +1°C° 0 mm 1 m/s 704 mmHg 91%
    08:00 0°C° 0 mm 1 m/s 704 mmHg 90%
    09:00 +1°C° 0 mm 1 m/s 704 mmHg 88%
    10:00 +2°C° 0 mm 1 m/s 704 mmHg 86%
    11:00 +3°C° 0 mm 1 m/s 704 mmHg 84%
    12:00 +4°C° 0 mm 1 m/s 704 mmHg 83%
    13:00 +4°C° 0 mm 1 m/s 704 mmHg 82%
    14:00 +4°C° 0 mm 1 m/s 703 mmHg 81%
    15:00 +4°C° 0 mm 1 m/s 703 mmHg 83%
    16:00 +3°C° 0 mm 1 m/s 703 mmHg 85%
    17:00 +3°C° 0 mm 1 m/s 703 mmHg 87%
    18:00 +1°C° 0,1 mm 2 m/s 704 mmHg 88%
    19:00 +1°C° 0,1 mm 2 m/s 704 mmHg 90%
    20:00 +1°C° 0,1 mm 2 m/s 705 mmHg 91%
    21:00 -1°C° 0,3 mm 2 m/s 705 mmHg 90%
    22:00 -1°C° 0,3 mm 2 m/s 705 mmHg 90%
    23:00 -1°C° 0,3 mm 3 m/s 706 mmHg 90%

    22 Janvier, Lundi

    Heure Température Précipitation Vent Pression Humidité
    00:00 -2°C° 0,3 mm 3 m/s 706 mmHg 89%
    01:00 -2°C° 0,3 mm 3 m/s 706 mmHg 89%
    02:00 -2°C° 0,3 mm 3 m/s 706 mmHg 89%
    03:00 -2°C° 0,3 mm 3 m/s 706 mmHg 89%
    04:00 -4°C° 0,3 mm 3 m/s 706 mmHg 89%
    05:00 -4°C° 0,3 mm 3 m/s 706 mmHg 89%
    06:00 -4°C° 0,2 mm 3 m/s 707 mmHg 88%
    07:00 -5°C° 0,2 mm 3 m/s 707 mmHg 87%
    08:00 -5°C° 0,2 mm 3 m/s 707 mmHg 87%
    09:00 -5°C° 0,2 mm 3 m/s 708 mmHg 85%
    10:00 -4°C° 0,2 mm 3 m/s 708 mmHg 83%
    11:00 -4°C° 0,2 mm 3 m/s 709 mmHg 81%
    12:00 -4°C° 0,3 mm 3 m/s 709 mmHg 82%
    13:00 -2°C° 0,3 mm 3 m/s 709 mmHg 82%
    14:00 -2°C° 0,3 mm 3 m/s 709 mmHg 83%
    15:00 -2°C° 0,2 mm 3 m/s 710 mmHg 84%
    16:00 -3°C° 0,2 mm 2 m/s 711 mmHg 86%
    17:00 -3°C° 0,2 mm 2 m/s 711 mmHg 87%
    18:00 -3°C° 0,2 mm 2 m/s 712 mmHg 88%
    19:00 -3°C° 0,2 mm 2 m/s 713 mmHg 89%
    20:00 -2°C° 0,2 mm 1 m/s 713 mmHg 90%
    21:00 -2°C° 0,1 mm 1 m/s 714 mmHg 90%
    22:00 -2°C° 0,1 mm 1 m/s 714 mmHg 89%
    23:00 -3°C° 0,1 mm 1 m/s 714 mmHg 88%

    23 Janvier, Mardi

    Heure Température Précipitation Vent Pression Humidité
    00:00 -3°C° 0 mm 1 m/s 714 mmHg 88%
    01:00 -3°C° 0 mm 1 m/s 714 mmHg 87%
    02:00 -4°C° 0 mm 1 m/s 715 mmHg 86%
    03:00 -4°C° 0 mm 1 m/s 715 mmHg 85%
    04:00 -4°C° 0 mm 1 m/s 715 mmHg 85%
    05:00 -6°C° 0 mm 1 m/s 715 mmHg 84%
    06:00 -6°C° 0 mm 1 m/s 715 mmHg 83%
    07:00 -6°C° 0 mm 1 m/s 716 mmHg 83%
    08:00 -6°C° 0 mm 1 m/s 716 mmHg 82%
    09:00 -4°C° 0 mm 1 m/s 716 mmHg 77%
    10:00 -2°C° 0 mm 1 m/s 717 mmHg 72%
    11:00 -2°C° 0 mm 0 m/s 717 mmHg 67%
    12:00 -1°C° 0 mm 0 m/s 717 mmHg 66%
    13:00 -1°C° 0 mm 0 m/s 716 mmHg 64%
    14:00 0°C° 0 mm 0 m/s 716 mmHg 63%
    15:00 -1°C° 0 mm 0 m/s 716 mmHg 66%
    16:00 -2°C° 0 mm 0 m/s 716 mmHg 69%
    17:00 -2°C° 0 mm 0 m/s 716 mmHg 72%
    18:00 -2°C° 0 mm 1 m/s 716 mmHg 72%
    19:00 -2°C° 0 mm 1 m/s 716 mmHg 72%
    20:00 -3°C° 0 mm 1 m/s 716 mmHg 72%
    21:00 -3°C° 0 mm 1 m/s 716 mmHg 70%
    22:00 -3°C° 0 mm 1 m/s 716 mmHg 69%
    23:00 -3°C° 0 mm 1 m/s 716 mmHg 67%
    Voir plus